AirNav   Phillips 66 Aviation Fuel
 
 1063 users online  

41A Reeves Airport
Tallassee, Alabama, USA

GOING TO TALLASSEE?


FAA INFORMATION EFFECTIVE 16 AUGUST 2018

Location

FAA Identifier: 41A
Lat/Long: 32-30-53.8000N / 085-52-34.3000W
32-30.896667N / 085-52.571667W
32.5149444 / -85.8761944
(estimated)
Elevation: 326 ft. / 99.4 m (surveyed)
Variation: 02W (1995)
From city: 2 miles SE of TALLASSEE, AL
Time zone: UTC -5 (UTC -6 during Standard Time)
Zip code: 36078

Airport Operations

Airport use: Open to the public
Activation date: 04/1996
Control tower: no
ARTCC: ATLANTA CENTER
FSS: ANNISTON FLIGHT SERVICE STATION
NOTAMs facility: ANB (NOTAM-D service available)
Attendance: UNATNDD
Wind indicator: lighted
Segmented circle: no
Beacon: white-green (lighted land airport)
Operates sunset to sunrise.

Airport Communications

CTAF: 122.9

Nearby radio navigation aids

VOR radial/distance  VOR name  Freq  Var
TGEr278/10.6TUSKEGEE VOR/DME117.3002E
MGMr049/28.5MONTGOMERY VORTAC112.1003E

Airport Services

Airframe service: NONE

Runway Information

Runway 13/31

Dimensions: 3207 x 75 ft. / 977 x 23 m
Surface: asphalt, in poor condition
CRACKING WITH VEGETATION VISIBLE ON RWY. SECTION OF ASPHALT MISSING RIGHT SIDE OF RWY 13.
Runway edge lights: medium intensity
Runway edge markings: RUNWAY MARKINGS FADED
RUNWAY 13  RUNWAY 31
Latitude: 32-31.074193N32-30.717660N
Longitude: 085-52.801500W085-52.340203W
Elevation: 320.0 ft.326.0 ft.
Traffic pattern: leftleft
Runway heading: 134 magnetic, 132 true314 magnetic, 312 true
Markings: NSTD, in poor conditionNSTD, in poor condition
Obstructions: 16 ft. trees, 387 ft. from runway, 142 ft. right of centerline, 11:1 slope to clear53 ft. tree, 1470 ft. from runway, 99 ft. left of centerline, 23:1 slope to clear

Airport Ownership and Management from official FAA records

Ownership: Publicly-owned
Owner: CITY OF TALLASSEE
3 FREEMAN AVENUE
TALLASSEE, AL 36078
Phone 334-283-6571
Manager: JOHNNY HAMMOCK, MAYOR
CITY OF TALLASSEE, 3 FREEMAN AVE
TALLASSEE, AL 36078
Phone 334-283-6571

Airport Operational Statistics

Aircraft based on the field: 4
Single engine airplanes: 3
Multi engine airplanes: 1
    
Aircraft operations: avg 88/week *
76% transient general aviation
24% local general aviation
* for 12-month period ending 23 June 2017

Instrument Procedures

There are no published instrument procedures at 41A.

Some nearby airports with instrument procedures:

06A - Moton Field Municipal Airport (10 nm E)
08A - Wetumpka Municipal Airport (23 nm W)
KAUO - Auburn University Regional Airport (23 nm E)
KALX - Thomas C Russell Field Airport (24 nm N)
KMXF - Maxwell Air Force Base (26 nm W)
 
Loc | Ops | Rwys | IFR | FBO | Links
Com | Nav | Svcs | Stats | Notes


 
Area around 41A (Reeves Airport)
 
Road maps at: MapQuest Bing Google
 
Aerial photo
WARNING: Photo may not be current or correct
Aerial photo of 41A (Reeves Airport)
Photo by Don Neuberg, Outwardbound Photography
Photo taken 13-Jan-2012
looking northwest.

Do you have a better or more recent aerial photo of Reeves Airport that you would like to share? If so, please send us your photo.

 
Sectional chart

 
Airport distance calculator
Flying to Reeves Airport? Find the distance to fly.

From to 41A

Sunrise and sunset
Times for 20-Aug-2018
 Local
(UTC-5)
 Zulu
(UTC)
Morning civil twilight05:4610:46
Sunrise06:1211:12
Sunset19:2200:22
Evening civil twilight19:4800:48

Current date and time
Zulu (UTC)  21-Aug-2018 01:07:09
Local (UTC-5)  20-Aug-2018 20:07:09
 
METAR
KAUO 
24nm E 
210056Z AUTO 21004KT 10SM BKN005 23/22 A3007 RMK AO2 SLP194 T02280222
KALX 
25nm N 
210055Z AUTO 00000KT 10SM BKN007 BKN011 23/23 A3004 RMK AO2 P0001 T02280228
KMXF 
26nm W 
210056Z AUTO 00000KT 10SM FEW160 SCT190 23/23 A3002 RMK AO2 SLP167 T02330226 $
KMGM 
30nm SW 
210053Z 00000KT 10SM CLR 23/23 A3003 RMK AO2 SLP166 T02330228
K1A9 
33nm W 
210055Z AUTO 00000KT 10SM SCT007 23/23 A3002 RMK AO2 T02300230
KTOI 
41nm S 
210053Z AUTO 17004KT 10SM CLR 23/22 A3005 RMK AO2 SLP169 T02280222 $
KSCD 
45nm NW 
210055Z AUTO 18005KT 10SM OVC012 24/24 A3003 RMK AO2 T02380238
KLSF 
46nm E 
210056Z AUTO 17005KT 10SM CLR 24/24 A3003 RMK AO2 DZB2356E2358 SLP172 P0000 T02350235
KCSG 
47nm E 
210059Z AUTO 20004KT 10SM FEW004 SCT009 24/23 A3004 RMK AO2 T02390228
TAF
KMXF 
26nm W 
201900Z 2019/2201 22009KT 8000 -SHRA SCT020 BKN060 QNH2996INS TEMPO 2019/2101 25010G20KT 3200 -TSRA BKN030CB BECMG 2100/2101 24006KT 9999 NSW SCT030 QNH2997INS BECMG 2106/2107 20006KT 8000 BR BKN005 QNH2996INS BECMG 2115/2116 24012KT 9999 NSW BKN020 QNH2995INS BECMG 2117/2118 24012KT 8000 -SHRA BKN025 QNH2993INS TEMPO 2118/2123 24012G20KT 4800 -TSRA BKN020CB TX30/2020Z TN23/2111Z LAST NO AMDS AFT 2103 NEXT 2111
KMGM 
30nm SW 
202245Z 2023/2118 18005KT P6SM -RA SCT090 BKN120 FM210000 17004KT P6SM VCSH BKN050 FM210600 19004KT 6SM BR OVC008 FM211400 24007KT P6SM OVC015 FM211600 24010KT P6SM VCSH BKN040
NOTAMs
Click for the latest NOTAMs
NOTAMs are issued by the DoD/FAA and will open in a separate window not controlled by AirNav.

 

 
 

Would you like to see your business listed on this page?

 If your business provides an interesting product or service to pilots, flight crews, aircraft, or users of the Reeves Airport, you should consider listing it here.  To start the listing process, click on the button below
 
Add a business
 

Other Pages about Reeves Airport

Update a link
 
Copyright © AirNav, LLC. All rights reserved. Privacy Policy  Contact